Zurück zum Katalog

STARLINK-36292

AktivKommunikationVLEO
NORAD 68509·PAYLOAD·🇺🇸 United States

Gestartet Mar 30, 2026 von Cape Canaveral Space Force Station

Loading…

Nächste Überflüge (nächste 24 Stunden)

TLE

AktuellSource: CelesTrak SupGP

Epoche: Sep 15, 2026, 03:04 UTC

1 68509C 26068B   26258.12826389  .00049776  00000+0  14703-2 0  2589
2 68509  53.1593 324.5009 0001278  86.4155  35.5714 15.34373869    11

Verfolge STARLINK-36292 in Echtzeit mit AllMySat

Download on the App Store